COSMOS 2251 DEB, 36369

Orbit data source: Space-Track

COSMOS 2251 DEB, 36369 is space debris in LEO originally from a launch on Wed, 16 Jun 1993 UTC launched from the Plesetsk Missile And Space Complex (PKMTR). The debris from Iridium 33, an American commercial communications satellite, has been tracked extensively since its accidental collision with the defunct Russian satellite Cosmos 2251 in 2009. This event, occurring at high speed in low Earth orbit (LEO), generated thousands of pieces of space debris, significantly increasing the risk of further collisions. The Iridium 33 debris cloud has impacted space traffic management and orbital debris mitigation strategies, making it a subject of ongoing study in space situational awareness.

Loading next visibility...
Identifier
36369, 1993-036AYW
Orbit
LEO
Country
Flag of CISCIS
Related business
Manufacturer
Unknown
Mission
Spacecraft
Bus & Motor
Unknown
Mass
Unknown
Launch date (UTC)
1993-06-16 (33 years ago)
Launch vehicle
Unknown
Launch site
Plesetsk Missile And Space Complex (PKMTR)
Object type
Payload
Rocket body
Debris
Shape & HBR
Unknown shape, 0.1 m
Radar Cross Section
Small (<0.1 m²)

Expand to show TLE details & history
Last TLE update: 2 days ago

TLE from 2 days ago
0 COSMOS 2251 DEB
1 36369U 93036AYW 26174.40083040  .00005942  00000-0  83360-3 0  9990
2 36369  74.0294  53.6115 0012829  94.9857 265.2783 14.77622461887646
Epoch: 2026-06-23T09:37Z
TLE epoch observation values (Epoch: 2026-06-23T09:37:11.746Z)
Latitude
-0.00001°
Longitude
-2.26038°
Altitude
640.252 km
Speed
7.538 km/s
True Right ascension
03h 34m 26s
True Declination
0° 00' 00"
Sunlit
Object was in daylight at epoch
Visualization orbit readout
Latitude
Unknown
Longitude
Unknown
Altitude
Unknown
Speed
Unknown
Apparent Right ascension
Unknown
Apparent Declination
Unknown
Sunlit
N/A
Visualization observer readout
Local Sidereal Time
01:47:23
Azimuth
Unknown
Elevation
Unknown
Doppler factor
Unknown
Orbital elements
Apogee altitude
643.414 km
Perigee altitude
625.421 km
Semi-major axis
7,012.555 km
Eccentricity
0.00128
Inclination
74.0294°
RAAN
53.6115°
Arg. of periapsis
94.9857°
True anomaly
265.13181°
Mean anomaly
265.2783°
Eccentric anomaly
265.20505°
Mean motion
3.69597 °/min
Orbital period
97.4 mins
BSTAR
0.0008336

Documentation

Showing up to 5 results
|